Flag for Sweden Weather past 2 weeks in Växjö, Sweden

Now
28 °F

Overcast.


Feels Like: 20 °F
Forecast: 17 / 23 °F
Wind: 8 mph from North

Location: Vaxjo Airport

Current Time: Dec 27, 2014 at 3:27:21 PM

Latest Report: Dec 27, 2014 at 2:50 PM


Visibility: N/A

Pressure: 29.89 "Hg

Humidity: 93%

Dew point: 27 °F

Location of VäxjöLocation

Historic Weather in Växjö — Graph

°F

Växjö temperature yesterday

Maximum temperature yesterday: 27 °F (at 2:20 PM)
Minimum temperature yesterday: 9 °F (at 5:50 AM)
Average temperature yesterday: 18 °F

Past Weeks' High & Low Weather Summary

 TemperatureHumidityPressure
High48 °F (Dec 19, 1:20 AM)100% (Dec 12, 4:20 PM)30.24 "Hg (Dec 12, 4:20 PM)
Low9 °F (Dec 26, 5:50 AM)64% (Dec 25, 1:20 PM)28.80 "Hg (Dec 12, 8:50 PM)
Average35 °F92%29.56 "Hg
* Reported Dec 12 2:20 PM — Dec 27 2:20 PM, Växjö, Weather by CustomWeather, © 2014

Note: Actual official high and low records may vary slightly from our data, if they occured in-between our weather recording intervals... More about our weather records

Advertising

Växjö weather history for previous 24 hours

 ConditionsComfort  
Time TempWeatherWind HumidityBarometerVisibility
2:20 PM
Dec 27
28 °FOvercast.7 mph93%29.89 "HgN/A
1:50 PM30 °FLow clouds.7 mph86%29.89 "HgN/A
1:20 PM30 °FMore clouds than sun.7 mph93%29.89 "HgN/A
12:50 PM30 °FMostly cloudy.8 mph93%29.89 "HgN/A
12:20 PM30 °FMore clouds than sun.5 mph93%29.89 "HgN/A
11:50 AM28 °FLow clouds.3 mph100%29.89 "HgN/A
11:20 AM28 °FLow clouds.2 mph100%29.89 "HgN/A
10:50 AM28 °FLow clouds.1 mph100%29.89 "HgN/A
10:20 AM28 °FLow clouds.3 mph100%29.89 "HgN/A
9:50 AM28 °FLight freezing rain. Low clouds.2 mph93%29.89 "Hg4 mi
9:20 AM28 °FLight freezing rain. Low clouds.6 mph93%29.89 "HgN/A
8:50 AM28 °FFreezing rain. Low clouds.6 mph93%29.89 "Hg2 mi
8:20 AM28 °FLight freezing rain. Low clouds.7 mph93%29.89 "Hg5 mi
7:50 AM28 °FLight freezing rain. Passing clouds.8 mph93%29.89 "Hg4 mi
7:20 AM27 °FFreezing rain. Partly cloudy.8 mph100%29.89 "Hg2 mi
6:50 AM27 °FFreezing rain. Ice fog.8 mph100%29.89 "Hg0 mi
6:20 AM27 °FLow clouds.7 mph93%29.89 "HgN/A
5:50 AM27 °FPassing clouds.7 mph93%29.89 "HgN/A
5:20 AM27 °FPassing clouds.8 mph93%29.92 "HgN/A
4:20 AM27 °FPassing clouds.10 mph93%29.92 "HgN/A
3:50 AM27 °FPassing clouds.12 mph93%29.95 "HgN/A
3:20 AM27 °FChilly.10 mph93%29.95 "HgN/A
2:50 AM27 °FChilly.10 mph93%29.95 "HgN/A
2:20 AM25 °FPartly cloudy.10 mph100%29.98 "HgN/A
1:50 AM25 °FCold.10 mph93%29.98 "HgN/A
1:20 AM25 °FPassing clouds.10 mph93%29.98 "HgN/A
12:50 AM27 °FOvercast.10 mph93%30.01 "HgN/A
12:20 AM27 °FLow clouds.9 mph93%30.01 "HgN/A
11:50 PM
Dec 26
27 °FPartly cloudy.8 mph93%30.04 "HgN/A
11:20 PM25 °FOvercast.8 mph93%30.04 "HgN/A
10:50 PM25 °FOvercast.10 mph93%30.04 "HgN/A
10:20 PM25 °FOvercast.9 mph93%30.07 "HgN/A
9:50 PM25 °FMostly cloudy.9 mph93%30.07 "HgN/A
9:20 PM23 °FLow clouds.9 mph93%30.09 "HgN/A
8:50 PM23 °FPassing clouds.10 mph93%30.09 "HgN/A
8:20 PM23 °FPassing clouds.9 mph93%30.09 "HgN/A
7:50 PM21 °FPassing clouds.9 mph93%30.09 "HgN/A
7:20 PM21 °FCold.9 mph93%30.09 "HgN/A
6:50 PM21 °FCold.10 mph93%30.09 "HgN/A
6:20 PM21 °FCold.9 mph93%30.09 "HgN/A
5:50 PM21 °FCold.8 mph93%30.12 "HgN/A
5:20 PM21 °FClear.7 mph86%30.12 "Hg10 mi
4:20 PM23 °FCold.7 mph86%30.15 "HgN/A
3:50 PM25 °FPassing clouds.8 mph80%30.15 "HgN/A
3:20 PM25 °FPartly sunny.7 mph86%30.15 "HgN/A
Weather by CustomWeather, © 2014

See weather overviewHow to use our weather pages